Temp
5 6 6 6 6 6 6 6 7 7 8 8 9 9 9 9 10 10 10 11 11 11 11 12 12 12 12 13 13 13 13 13 14 14 13 13 13 13 13 13 13 13 13 13 13
5 5 6 6 6 6 6 6 6 7 7 7 8 9 9 9 9 10 10 11 11 11 11 11 12 12 12 12 12 12 13 13 13 13 13 13 13 13 13 13 13 13 13 13 13
5 5 5 5 6 6 6 6 5 6 7 7 8 8 9 9 9 10 10 10 11 11 11 11 11 12 12 12 12 12 13 13 13 12 12 13 13 12 13 13 13 13 13 12 12
5 5 4 5 5 5 5 5 5 5 6 6 7 7 8 8 8 9 10 10 11 11 11 11 11 11 12 11 11 11 12 12 13 12 12 13 13 13 13 14 13 13 13 13 12
4 4 4 4 4 5 5 5 5 5 5 6 6 7 7 8 9 9 10 10 10 10 10 11 11 11 11 11 11 12 12 13 13 13 12 12 13 13 14 14 13 13 13 13 12
3 4 4 4 4 4 4 5 5 5 5 5 6 6 7 8 8 8 9 9 10 10 10 10 10 11 11 11 11 12 12 12 12 12 12 12 12 12 14 13 13 12 13 13 13
2 3 4 4 4 3 3 4 4 4 4 5 5 6 7 8 8 8 9 9 9 9 9 10 9 9 10 10 10 11 11 12 12 12 12 12 13 12 12 12 13 12 12 13 12
1 2 3 4 3 3 2 3 3 4 4 4 5 5 7 8 7 8 8 9 9 9 8 9 9 9 9 10 10 10 10 11 13 13 12 11 12 12 11 12 12 13 12 12 12
0 1 2 3 3 3 2 2 2 2 3 4 4 5 7 8 8 8 8 8 8 8 8 8 9 9 9 10 9 9 9 11 12 12 12 11 11 12 11 11 12 13 12 12 11
-1 1 1 2 2 2 2 1 1 2 2 3 4 4 6 8 8 7 8 8 8 8 8 8 8 8 9 9 9 11 10 11 11 12 12 11 10 11 11 11 12 13 12 12 12
-2 1 1 0 1 1 1 0 0 1 2 4 4 5 5 7 8 8 8 8 8 8 8 8 7 9 11 11 10 10 9 9 10 11 10 10 10 11 12 12 13 13 12 12 12
-2 -0 1 0 0 0 0 1 3 3 2 3 3 4 5 5 7 7 7 7 8 8 8 7 8 9 9 9 9 9 9 9 11 11 9 10 10 11 11 12 12 12 12 11 11
-2 -2 0 -0 -1 -1 0 2 1 1 1 3 4 4 3 4 5 6 6 7 7 7 8 8 9 9 9 9 8 8 8 9 9 10 9 8 9 11 12 12 13 13 11 11 10
-2 -2 -1 -2 -1 -0 -0 1 -0 -0 -1 1 3 4 4 2 5 6 6 6 7 7 7 7 7 8 9 8 8 8 10 9 9 7 7 8 6 8 10 11 12 12 10 10 10
-2 -2 -3 -2 0 -0 1 0 -2 -2 -4 3 4 4 5 5 6 7 6 5 6 7 7 8 8 8 8 9 9 8 9 8 7 7 6 6 6 8 10 10 11 11 10 10 10
-2 -2 -3 -2 -0 0 0 -3 -3 -3 -3 3 4 4 5 5 4 5 5 5 5 5 6 6 6 7 7 7 8 7 7 7 6 6 5 6 6 9 10 10 10 10 10 10 9
-3 -1 -3 -2 -0 -1 -1 -4 -3 -2 2 2 3 4 5 6 4 4 5 5 4 3 4 5 6 5 6 6 7 6 5 5 4 3 4 8 7 8 9 9 10 11 10 9 8
-2 -1 -3 -3 -1 -1 -2 -3 -3 -1 1 3 4 4 4 4 4 2 3 5 5 5 5 4 4 6 6 7 6 7 7 6 3 3 6 7 7 8 9 9 10 11 10 8 8
-5 -3 -3 -3 -1 -1 -3 -3 -2 1 2 2 2 3 3 4 5 3 3 5 7 6 4 6 5 7 8 9 7 6 5 6 7 6 4 7 7 8 8 8 9 10 9 8 8
-4 -4 -3 -3 -2 -1 -3 -3 -1 1 2 2 3 3 3 3 3 3 2 4 5 6 6 5 5 6 7 6 6 6 7 5 4 3 4 5 6 7 8 8 9 9 8 7 7
-5 -4 -3 -3 -2 -2 -4 -1 1 -0 1 2 3 3 4 4 4 3 5 5 6 6 5 5 5 5 5 5 6 6 5 5 6 5 1 3 6 8 8 7 9 8 7 7 7
-6 -5 -3 -3 -3 -3 -4 -2 -2 -2 -0 2 3 3 4 4 4 4 5 6 5 5 5 6 3 3 4 5 5 6 6 6 4 3 5 6 6 7 8 7 8 7 6 6 6
-6 -5 -3 -3 -3 -4 -3 -4 -2 -2 -0 1 2 2 3 3 3 4 4 5 4 5 4 4 2 2 3 3 4 4 4 4 5 5 5 3 5 6 7 6 6 5 5 5 5
-5 -4 -4 -3 -3 -2 -4 -4 -3 -2 -1 -0 1 2 2 2 2 3 3 3 4 3 4 4 4 4 4 5 4 3 4 4 4 4 4 5 5 5 6 5 5 4 4 4 4
-6 -4 -3 -3 -2 -3 -3 -4 -4 -4 -3 -1 -1 1 2 2 1 1 2 2 2 2 3 2 2 2 3 3 3 3 4 4 4 4 4 4 4 5 5 4 4 3 3 3 3
-6 -5 -3 -3 -2 -3 -3 -3 -3 -4 -2 -2 -1 0 -0 0 1 1 1 1 1 2 1 1 1 1 1 1 1 2 3 4 4 4 3 4 4 5 4 4 3 3 3 3 3
-6 -5 -3 -3 -2 -3 -2 -3 -3 -2 -1 -0 1 -1 -1 1 0 0 0 -0 0 0 1 0 1 -0 0 1 1 -0 2 3 3 3 3 2 3 4 4 3 3 2 2 1 1
Height
3090 3094 3101 3108 3113 3117 3121 3125 3128 3132 3135 3138 3140 3143 3145 3148 3149 3151 3153 3156 3156 3158 3159 3161 3161 3162 3163 3164 3165 3164 3165 3164 3167 3168 3169 3168 3168 3168 3168 3168 3168 3167 3166 3166 3164
3085 3088 3092 3098 3106 3111 3116 3119 3123 3127 3130 3133 3137 3139 3142 3144 3146 3148 3151 3152 3153 3155 3156 3158 3159 3160 3162 3162 3162 3162 3160 3163 3166 3167 3167 3166 3166 3166 3165 3165 3165 3165 3165 3164 3162
3068 3077 3083 3089 3096 3104 3109 3114 3117 3121 3125 3128 3131 3135 3138 3140 3143 3144 3146 3149 3150 3152 3154 3155 3156 3157 3159 3159 3159 3158 3158 3161 3162 3163 3162 3162 3163 3163 3162 3161 3163 3164 3162 3161 3159
3062 3070 3074 3080 3087 3096 3103 3108 3112 3116 3119 3122 3125 3128 3132 3136 3142 3140 3142 3145 3147 3149 3150 3151 3153 3154 3155 3154 3156 3155 3156 3157 3157 3158 3158 3158 3159 3159 3159 3158 3160 3159 3158 3156 3155
3052 3061 3069 3074 3080 3087 3095 3101 3106 3110 3114 3117 3119 3123 3126 3130 3135 3136 3137 3140 3142 3144 3146 3148 3149 3150 3151 3151 3153 3151 3152 3153 3153 3154 3153 3154 3154 3154 3153 3156 3155 3154 3153 3151 3149
3041 3049 3056 3066 3071 3079 3086 3093 3099 3104 3108 3111 3115 3117 3120 3123 3130 3131 3134 3137 3138 3140 3141 3143 3145 3146 3147 3147 3149 3148 3148 3149 3149 3149 3149 3150 3150 3149 3150 3150 3149 3148 3148 3148 3147
3030 3040 3048 3056 3065 3070 3078 3085 3091 3096 3101 3104 3107 3110 3111 3121 3123 3126 3130 3133 3135 3137 3138 3139 3141 3142 3142 3144 3144 3144 3143 3143 3144 3146 3146 3145 3145 3144 3145 3142 3144 3143 3144 3144 3144
3019 3029 3039 3047 3057 3065 3071 3078 3084 3089 3094 3097 3100 3102 3100 3116 3114 3121 3126 3129 3130 3132 3134 3135 3137 3138 3139 3141 3140 3140 3138 3136 3140 3142 3142 3141 3137 3142 3139 3138 3138 3139 3139 3139 3139
3006 3018 3027 3038 3047 3058 3063 3071 3077 3081 3085 3089 3094 3094 3096 3105 3110 3118 3118 3124 3126 3127 3129 3130 3131 3132 3136 3136 3135 3134 3132 3133 3134 3137 3138 3136 3132 3134 3134 3133 3134 3134 3133 3133 3133
2992 3007 3017 3029 3039 3048 3056 3062 3069 3073 3077 3081 3084 3093 3092 3100 3103 3108 3111 3116 3120 3122 3124 3126 3124 3125 3130 3129 3127 3128 3128 3129 3130 3133 3130 3130 3127 3130 3130 3129 3129 3128 3128 3127 3127
2979 2994 3007 3019 3030 3038 3045 3051 3060 3064 3063 3068 3072 3081 3086 3092 3098 3100 3104 3108 3111 3115 3116 3119 3117 3115 3120 3124 3127 3128 3125 3123 3124 3129 3125 3123 3122 3123 3124 3123 3124 3121 3120 3119 3119
2967 2981 2995 3008 3020 3028 3033 3038 3047 3055 3058 3063 3068 3073 3079 3085 3090 3093 3098 3101 3103 3104 3110 3111 3104 3115 3119 3119 3120 3122 3119 3117 3117 3121 3121 3117 3111 3115 3116 3116 3116 3114 3111 3110 3106
2952 2967 2982 3000 3010 3018 3022 3033 3046 3051 3057 3057 3061 3063 3077 3079 3082 3087 3091 3093 3098 3101 3102 3102 3105 3110 3111 3113 3112 3113 3113 3114 3113 3116 3114 3112 3102 3105 3109 3108 3107 3105 3102 3099 3095
2939 2954 2970 2990 3000 3007 3015 3030 3041 3050 3055 3047 3049 3050 3063 3069 3070 3080 3084 3091 3094 3096 3099 3096 3100 3105 3105 3106 3110 3105 3109 3110 3111 3112 3109 3110 3096 3094 3097 3097 3097 3097 3093 3090 3091
2929 2944 2957 2977 2986 2992 3009 3025 3036 3045 3052 3039 3037 3044 3051 3058 3060 3069 3077 3082 3083 3089 3092 3085 3092 3097 3096 3099 3107 3100 3106 3108 3107 3105 3105 3107 3105 3082 3089 3089 3091 3090 3086 3086 3087
2915 2932 2944 2964 2977 2994 3005 3021 3031 3042 3029 3024 3024 3026 3036 3046 3051 3061 3066 3074 3079 3083 3082 3083 3087 3090 3090 3095 3097 3099 3101 3104 3102 3103 3096 3101 3101 3062 3081 3083 3082 3084 3083 3082 3085
2904 2920 2933 2953 2963 2978 2999 3009 3020 3018 3013 3013 3012 3018 3025 3032 3041 3048 3053 3057 3063 3071 3066 3076 3074 3081 3086 3088 3090 3092 3096 3099 3098 3099 3087 3088 3086 3069 3076 3077 3075 3076 3077 3077 3082
2896 2912 2925 2937 2956 2968 2986 2995 2997 2992 2999 3003 3005 3014 3018 3024 3031 3036 3046 3049 3054 3058 3061 3065 3067 3069 3071 3074 3081 3082 3084 3084 3091 3090 3079 3081 3069 3064 3070 3072 3072 3072 3071 3073 3078
2891 2901 2915 2924 2937 2954 2966 2972 2973 2975 2985 2996 3001 3004 3010 3017 3023 3028 3033 3035 3040 3044 3053 3056 3055 3056 3060 3069 3075 3077 3075 3080 3080 3077 3077 3069 3062 3060 3063 3066 3068 3067 3068 3071 3074
2881 2894 2903 2917 2923 2936 2944 2955 2961 2970 2977 2989 2990 2996 2999 3008 3015 3019 3025 3026 3032 3038 3044 3050 3051 3051 3057 3061 3064 3067 3074 3076 3076 3075 3075 3057 3056 3051 3054 3058 3061 3061 3063 3066 3068
2883 2889 2894 2906 2913 2919 2923 2934 2944 2961 2970 2980 2984 2989 2995 3000 3006 3010 3012 3020 3024 3030 3038 3044 3047 3048 3051 3047 3051 3059 3058 3062 3063 3060 3058 3059 3043 3044 3047 3053 3055 3057 3059 3061 3062
2873 2879 2885 2896 2905 2905 2918 2919 2943 2955 2965 2971 2975 2983 2989 2996 2999 3005 3007 3013 3018 3025 3028 3034 3041 3037 3040 3043 3046 3049 3046 3049 3049 3049 3049 3049 3026 3039 3043 3050 3052 3053 3054 3057 3056
2867 2869 2880 2887 2885 2895 2914 2932 2941 2951 2958 2963 2970 2976 2982 2988 2995 2998 3003 3010 3017 3019 3019 3027 3030 3034 3032 3034 3035 3035 3036 3038 3041 3043 3036 3043 3026 3036 3041 3043 3046 3046 3047 3049 3052
2862 2863 2867 2876 2883 2894 2912 2921 2930 2942 2951 2955 2963 2967 2974 2980 2986 2990 2998 3003 3008 3012 3015 3018 3017 3016 3012 3021 3024 3024 3026 3029 3033 3032 3024 3024 3029 3031 3034 3035 3038 3040 3042 3044 3045
2851 2857 2862 2867 2882 2896 2908 2912 2923 2933 2939 2950 2954 2958 2965 2971 2977 2982 2990 2994 2999 3004 3008 3010 3005 3009 3006 3013 3014 3014 3015 3018 3019 3010 3019 3016 3025 3029 3029 3031 3034 3036 3037 3038 3039
2849 2857 2862 2866 2881 2892 2897 2904 2916 2924 2929 2935 2942 2952 2958 2962 2967 2976 2981 2986 2989 2993 2995 2996 2993 2999 2995 3003 3004 3002 3002 3004 3005 3010 3012 3014 3017 3021 3022 3024 3026 3030 3031 3032 3033
2847 2857 2861 2866 2876 2885 2890 2902 2907 2917 2924 2933 2938 2945 2948 2949 2966 2968 2973 2977 2980 2984 2986 2988 2989 2991 2983 2996 2997 2993 2978 2990 2994 2998 3003 3005 3007 3011 3014 3018 3019 3022 3021 3023 3026
Wind_Speed
49 47 45 44 44 41 39 36 33 32 29 27 26 25 23 21 19 18 16 16 17 16 15 14 15 16 14 14 14 15 17 17 12 9 8 13 13 11 9 11 12 12 13 16 19
52 50 48 46 45 44 42 39 35 34 32 29 28 27 25 22 20 19 18 18 18 17 16 16 17 16 14 15 16 18 22 16 12 9 13 12 15 16 14 15 15 13 18 19 20
61 56 52 49 47 47 44 41 38 36 34 32 30 28 27 24 22 22 21 20 19 18 17 17 18 17 15 16 18 22 23 18 17 15 16 18 20 18 20 22 17 19 20 22 23
63 59 55 52 49 48 46 43 40 38 36 34 32 30 29 26 17 22 23 21 20 20 20 20 19 19 19 20 20 25 23 23 22 19 21 22 23 24 25 26 23 26 27 29 30
63 59 57 54 51 49 48 45 42 40 38 35 34 32 31 31 27 17 18 24 23 22 22 21 21 22 22 23 21 25 25 25 25 24 24 24 25 25 25 21 21 21 21 24 24
65 65 60 57 54 51 49 47 45 42 39 37 36 35 35 35 28 28 26 16 17 21 21 21 22 22 23 22 22 26 26 25 26 26 27 26 24 26 18 21 14 16 16 13 16
68 65 63 59 56 53 50 48 46 44 41 40 39 39 40 32 28 31 27 24 24 22 18 18 19 21 23 21 24 25 28 28 27 24 24 25 28 28 19 19 19 21 20 18 18
67 67 62 61 57 53 50 49 47 45 43 42 41 41 46 33 36 30 25 26 26 25 24 24 24 24 25 24 26 25 27 29 25 21 21 21 28 20 13 17 22 23 23 23 24
59 67 64 61 58 54 51 49 48 46 46 45 43 44 46 40 37 30 32 28 24 26 25 25 27 27 26 27 27 28 29 31 28 22 24 27 26 22 19 21 21 22 24 22 23
48 69 66 60 57 55 52 50 50 48 47 46 47 42 43 28 38 36 35 32 32 30 30 29 31 30 28 31 32 31 30 31 28 25 24 23 28 24 24 28 27 29 31 32 33
47 63 68 58 58 55 54 54 53 53 56 56 45 48 23 32 35 20 39 35 35 33 34 33 36 39 33 32 32 31 31 33 32 27 33 33 35 32 32 32 32 36 38 41 43
67 55 67 60 57 56 58 61 60 56 54 54 51 45 32 42 26 30 31 30 39 40 36 37 44 37 34 34 32 31 34 37 37 31 32 34 37 33 32 33 37 40 37 33 38
73 44 58 60 55 57 62 60 52 51 44 50 50 52 39 32 40 39 28 32 30 29 31 37 38 16 31 36 33 35 36 35 37 28 26 30 42 37 35 36 40 37 37 38 34
76 53 47 61 56 61 61 55 47 43 30 38 52 54 49 46 46 36 38 33 31 30 26 27 34 31 28 24 22 35 32 28 26 25 22 19 12 28 37 36 32 43 36 29 11
81 54 45 61 58 68 64 53 45 37 4 23 34 45 43 51 50 45 39 34 35 33 31 32 28 28 35 35 30 37 28 22 19 25 28 28 20 25 19 34 37 28 18 14 8
88 75 52 56 60 63 60 44 36 23 12 16 20 35 45 47 47 44 32 43 42 38 40 41 34 30 30 24 24 31 28 25 23 22 17 26 23 43 33 24 29 20 16 15 12
89 78 55 54 64 63 57 51 38 26 27 20 29 32 37 46 46 47 45 46 45 34 51 43 48 41 35 28 25 22 15 5 4 5 8 16 25 39 28 35 25 19 15 16 16
87 69 59 47 70 65 62 59 23 46 45 17 33 30 33 40 44 44 42 46 50 45 21 34 25 44 45 48 34 34 35 15 7 5 6 14 14 24 27 13 12 19 14 18 21
43 60 59 52 66 69 72 62 38 45 65 26 24 35 33 35 25 45 49 53 53 56 39 22 25 24 29 25 50 39 37 40 28 17 6 15 29 35 25 24 21 26 17 23 25
45 40 67 53 65 73 80 58 71 49 35 43 34 31 36 38 34 39 40 44 50 52 53 23 12 17 17 19 25 41 29 19 23 5 10 9 18 24 12 16 24 31 28 26 22
48 41 58 43 68 74 77 83 82 50 28 46 46 34 32 39 39 40 33 22 33 43 47 46 26 17 17 27 33 32 41 27 27 29 5 4 17 31 31 27 29 32 29 25 22
29 53 62 41 66 78 79 86 61 57 40 41 42 41 38 35 41 40 42 36 26 29 42 44 23 35 36 24 25 37 40 47 26 11 28 26 39 20 11 25 32 32 29 26 23
25 41 58 53 42 70 78 67 56 40 51 43 45 46 34 31 34 41 43 42 32 26 36 39 29 23 23 29 39 41 36 40 46 32 39 15 19 24 24 31 30 30 28 26 22
37 20 46 57 40 65 69 67 60 45 46 44 48 49 39 42 38 27 38 39 44 31 31 28 36 36 27 19 9 31 53 40 42 36 41 43 24 23 31 38 35 27 20 16 16
41 24 32 59 66 42 61 54 65 66 48 48 41 45 49 42 35 40 35 41 39 40 38 40 41 44 52 42 35 40 31 39 47 58 35 42 36 31 38 32 24 20 17 17 20
28 28 35 48 55 59 56 56 62 62 54 72 62 59 54 47 46 43 34 39 41 40 43 42 33 39 48 42 39 42 43 39 48 50 48 40 40 43 41 31 27 28 25 24 26
31 46 31 42 47 59 59 57 55 52 53 49 55 57 53 56 57 54 27 49 48 49 46 47 44 35 36 38 37 31 59 47 45 47 47 41 39 47 44 35 34 28 26 26 29
Wind_Direction
221 218 220 226 226 224 223 224 223 227 229 230 233 234 232 230 231 229 229 229 228 227 229 230 234 237 237 238 239 245 249 249 253 233 198 203 199 220 233 246 261 270 280 289 292
226 220 218 221 226 225 225 224 224 225 227 229 232 235 234 231 233 234 228 231 233 234 232 231 237 239 239 243 243 245 251 259 260 246 227 219 224 227 232 243 255 263 285 289 291
220 221 218 218 221 225 225 226 226 226 227 227 229 233 235 234 233 234 233 232 235 237 239 238 241 243 243 245 248 251 256 263 256 252 256 248 231 245 254 260 265 270 277 281 285
223 221 220 217 217 222 226 226 227 228 229 229 230 230 234 234 235 239 235 235 234 237 239 239 242 245 244 241 238 250 257 260 259 253 252 255 256 253 255 269 279 284 282 285 283
223 222 222 220 218 218 223 226 228 229 231 233 232 232 233 233 224 231 228 231 234 237 240 240 241 243 246 248 249 256 256 257 265 264 256 258 265 272 265 272 281 276 267 266 274
223 221 218 221 218 218 220 223 227 229 231 233 235 235 236 234 230 233 232 231 229 235 239 238 239 245 250 253 253 258 266 268 264 264 269 273 277 279 273 294 257 258 259 261 266
223 222 219 218 221 216 219 222 225 228 231 233 235 237 236 230 237 233 232 231 237 238 236 234 233 237 245 255 257 262 264 260 262 269 273 276 272 279 285 259 249 250 257 263 279
221 221 219 218 219 219 220 221 223 226 229 234 236 239 241 230 236 235 236 235 236 239 240 241 242 243 247 255 260 266 267 270 264 267 268 269 273 275 249 254 255 260 265 264 265
210 219 218 218 216 219 218 223 224 225 227 231 236 239 244 235 235 238 237 233 233 236 237 240 244 244 245 252 258 257 262 268 276 277 287 278 269 260 253 260 257 262 257 264 271
207 216 217 216 215 215 217 220 224 225 227 229 233 238 238 240 238 232 237 237 233 234 240 239 243 244 245 242 245 254 258 270 276 279 276 273 262 259 264 270 270 273 265 266 277
206 205 216 214 214 213 213 216 219 223 224 225 230 234 229 236 235 230 230 232 235 234 235 239 240 240 247 255 259 268 271 272 270 269 276 272 271 258 264 271 276 279 279 283 285
213 194 207 206 212 212 214 217 221 226 228 227 229 232 230 230 231 228 228 223 227 231 234 239 243 249 252 253 256 256 261 265 273 272 274 276 273 271 272 279 287 291 292 296 286
211 192 190 204 214 210 215 217 220 228 232 236 234 235 225 231 231 229 223 224 227 228 230 240 246 252 249 250 250 254 254 263 271 284 270 277 276 276 283 288 296 300 307 297 292
217 201 185 196 213 210 212 213 215 223 229 245 236 237 226 228 235 226 228 232 232 231 229 246 244 241 243 245 247 256 258 266 270 273 271 285 290 287 294 293 295 311 303 293 261
216 197 188 190 214 211 210 206 208 209 230 242 234 235 234 228 234 228 228 222 222 224 225 238 247 244 243 249 250 257 265 273 276 268 277 271 283 292 276 284 298 310 282 277 223
221 209 198 187 216 218 208 192 190 181 231 209 215 217 221 222 227 228 220 228 236 237 241 245 247 249 260 254 247 255 252 260 265 273 254 256 250 277 278 283 301 290 275 248 226
218 215 197 188 212 208 199 178 173 194 216 204 204 208 214 216 213 218 216 213 217 216 234 239 242 242 243 240 238 231 216 234 259 208 247 250 238 253 267 286 287 232 252 237 203
215 215 199 192 215 207 192 179 189 211 207 214 211 209 204 208 213 207 209 218 219 222 229 226 245 237 232 236 228 223 221 209 202 211 266 241 242 263 283 257 280 233 229 191 193
213 212 208 187 207 202 190 187 195 209 213 204 186 192 197 206 210 205 211 219 227 221 217 227 241 238 244 251 236 226 219 235 243 254 293 252 262 268 266 260 270 230 197 186 189
202 212 223 194 206 202 188 191 206 211 216 200 200 197 193 197 199 200 201 223 223 225 225 225 250 250 242 221 229 230 240 218 218 217 241 249 251 244 256 260 230 209 197 197 201
207 192 206 181 196 198 184 202 210 212 207 204 210 204 205 199 201 199 210 225 226 225 224 224 229 236 216 222 231 222 224 224 234 225 189 259 257 269 260 245 221 201 199 205 212
211 211 219 192 179 191 187 206 205 205 203 204 208 212 214 203 205 210 214 226 230 219 218 223 235 249 243 244 239 239 241 222 214 217 228 239 256 261 273 220 216 204 203 205 205
194 210 207 195 188 179 201 198 200 201 212 203 209 205 203 203 207 219 222 229 225 219 215 214 218 245 263 252 237 239 227 234 235 239 236 204 249 254 237 208 198 196 193 198 208
189 170 194 191 186 192 191 201 199 199 199 202 209 216 213 219 215 218 222 227 228 227 223 224 219 224 234 233 207 235 235 233 229 227 236 232 235 219 199 188 186 193 201 219 243
201 196 184 191 192 189 194 203 207 210 208 208 213 213 217 219 213 219 223 224 224 227 223 220 229 235 247 246 241 250 255 236 231 234 222 234 222 215 196 190 203 217 233 260 273
201 201 200 205 213 216 202 205 208 210 214 221 225 225 225 226 224 226 217 224 228 227 220 220 226 239 243 246 246 248 245 244 237 238 234 236 225 212 206 220 225 240 248 261 274
193 197 189 197 203 207 206 204 212 214 220 229 229 226 232 236 237 242 229 232 235 236 236 233 237 241 242 247 239 244 242 234 230 227 225 224 218 213 212 221 231 245 258 268 272